M I D A S
Marine Information and Data Acquisition System
Tripno 52 of the Zeeleeuw from 2001-05-28 09:45:00 to 2001-05-28 18:25:00
Back to CruiseResearch ActivitiesStationsMapUnderway DataData graphs

EquipmentUnitsComment
TimeDGPSUTC
LatitudeDGPSDM.mWGS84
LongitudeDGPSDM.mWGS84
HeadingGyrodeg 
SOGDGPSknotsSpeed over ground
COGDGPSdegCourse over ground
DepthEcho soundermeters200 kHz
Missing or incorrect values are displayed as -999
Navigation data collected by the RV Zeeleeuw from 2001-05-28 09:45:00 to 2001-05-28 18:25:00
                                                                                    Next 1000 lines
Time Latitude Longitude Heading SOG COG Depth
2001-05-28 09:45:10 51°24.722 3°9.815 265 14.4 266.8 5.2
2001-05-28 09:45:15 51°24.721 3°9.784 264.2 14.3 266.2 5.2
2001-05-28 09:45:20 51°24.719 3°9.752 263.5 14.3 265.9 5.2
2001-05-28 09:45:25 51°24.718 3°9.721 262.8 14.2 265.8 5.2
2001-05-28 09:45:30 51°24.717 3°9.689 263.5 14.2 267 5.2
2001-05-28 09:45:35 51°24.716 3°9.657 265 14.3 268.5 5.1
2001-05-28 09:45:40 51°24.716 3°9.626 267 14.2 270.5 5.1
2001-05-28 09:45:45 51°24.716 3°9.594 268.2 14.2 270.5 5.1
2001-05-28 09:45:50 51°24.716 3°9.563 268.8 14.2 270.3 5.1
2001-05-28 09:45:55 51°24.717 3°9.531 268.8 14.2 270.3 5
2001-05-28 09:46:00 51°24.717 3°9.499 268.5 14.2 269.8 5
2001-05-28 09:46:05 51°24.717 3°9.468 267.8 14.2 269.6 5
2001-05-28 09:46:10 51°24.716 3°9.436 267 14.2 267.7 5
2001-05-28 09:46:15 51°24.716 3°9.405 265.8 14.2 267.3 5
2001-05-28 09:46:20 51°24.714 3°9.374 264.8 14.2 266.5 5
2001-05-28 09:46:25 51°24.713 3°9.342 264.3 14.1 267.2 5
2001-05-28 09:46:30 51°24.713 3°9.311 265.7 14.1 269.1 5
2001-05-28 09:46:35 51°24.713 3°9.28 267.5 14.1 270.5 4.9
2001-05-28 09:46:40 51°24.713 3°9.249 269.5 14 273.8 4.9
2001-05-28 09:46:45 51°24.715 3°9.217 272.3 14 275.1 5
2001-05-28 09:46:50 51°24.718 3°9.187 275.8 13.9 279.6 4.9
2001-05-28 09:46:55 51°24.722 3°9.156 279.5 13.9 281.6 4.9
2001-05-28 09:47:00 51°24.727 3°9.126 281.3 14 282.9 4.9
2001-05-28 09:47:05 51°24.732 3°9.096 282.2 13.9 283.3 4.8
2001-05-28 09:47:10 51°24.736 3°9.066 282.5 14 283.3 4.8
2001-05-28 09:47:15 51°24.74 3°9.036 281.8 14 281.6 4.8
2001-05-28 09:47:20 51°24.744 3°9.006 280.7 14 280.4 4.8
2001-05-28 09:47:25 51°24.747 3°8.975 279 14 279.5 4.7
2001-05-28 09:47:30 51°24.75 3°8.944 277.8 13.9 278.6 4.7
2001-05-28 09:47:35 51°24.753 3°8.914 276.7 13.9 278.1 4.7
2001-05-28 09:47:40 51°24.755 3°8.883 275.7 13.9 277.4 4.7
2001-05-28 09:47:45 51°24.757 3°8.853 275 14 276.6 4.6
2001-05-28 09:47:50 51°24.759 3°8.822 275 13.9 276.6 4.6
2001-05-28 09:47:55 51°24.762 3°8.792 274.7 14 276.4 4.7
2001-05-28 09:48:00 51°24.764 3°8.761 274.8 13.9 276.5 4.7
2001-05-28 09:48:05 51°24.766 3°8.731 274.8 14 276.3 4.7
2001-05-28 09:48:10 51°24.769 3°8.7 274.7 14 276.6 4.6
2001-05-28 09:48:15 51°24.771 3°8.67 274.8 14 276.9 4.6
2001-05-28 09:48:20 51°24.773 3°8.639 274.8 13.9 276.9 4.6
2001-05-28 09:48:25 51°24.775 3°8.608 274.8 13.9 277.1 4.6
2001-05-28 09:48:30 51°24.778 3°8.577 274.8 14 276.9 4.6
2001-05-28 09:48:35 51°24.78 3°8.547 274.7 13.9 276.3 4.6
2001-05-28 09:48:40 51°24.782 3°8.516 274.5 14 276.5 4.6
2001-05-28 09:48:45 51°24.785 3°8.486 275.2 13.9 278.3 4.6
2001-05-28 09:48:50 51°24.788 3°8.455 276.5 13.8 280.6 4.6
2001-05-28 09:48:55 51°24.791 3°8.425 278.5 13.8 281.7 4.6
2001-05-28 09:49:00 51°24.796 3°8.395 281.2 13.7 285.8 4.6
2001-05-28 09:49:05 51°24.801 3°8.365 284.5 13.7 287.4 4.6
2001-05-28 09:49:10 51°24.808 3°8.337 288 13.7 291.6 4.5
2001-05-28 09:49:15 51°24.816 3°8.309 291.5 13.7 294.1 4.4
2001-05-28 09:49:20 51°24.824 3°8.282 294.2 13.7 295.9 4.5
2001-05-28 09:49:25 51°24.833 3°8.255 295.5 13.6 296.3 4.4
2001-05-28 09:49:30 51°24.841 3°8.227 295.3 13.7 295.5 4.5
2001-05-28 09:49:35 51°24.849 3°8.199 294.8 13.8 294.7 4.5
2001-05-28 09:49:40 51°24.857 3°8.172 293.5 13.8 293 4.5
2001-05-28 09:49:45 51°24.864 3°8.143 291.7 13.7 291.7 4.4
2001-05-28 09:49:50 51°24.87 3°8.114 289.3 13.9 288.3 4.4
2001-05-28 09:49:55 51°24.876 3°8.084 286.7 13.8 287 4.5
2001-05-28 09:50:00 51°24.881 3°8.055 284.2 13.8 284.8 4.4
2001-05-28 09:50:05 51°24.885 3°8.027 282.7 13.6 284.6 4.4
2001-05-28 09:50:10 51°24.89 3°7.998 281.5 13.7 283.6 4.4
2001-05-28 09:50:15 51°24.895 3°7.968 281.7 13.6 284.3 4.4
2001-05-28 09:50:20 51°24.899 3°7.939 283.2 13.6 286.6 4.4
2001-05-28 09:50:25 51°24.906 3°7.909 286 13.7 289.1 4.4
2001-05-28 09:50:30 51°24.912 3°7.881 288.7 13.6 291.4 4.4
2001-05-28 09:50:35 51°24.92 3°7.853 290.7 13.6 292.4 4.4
2001-05-28 09:50:40 51°24.927 3°7.825 291.8 13.6 293.2 4.4
2001-05-28 09:50:45 51°24.934 3°7.797 292.2 13.6 293.6 4.4
2001-05-28 09:50:50 51°24.942 3°7.769 291.8 13.7 292.3 4.4
2001-05-28 09:50:55 51°24.949 3°7.741 291 13.7 292 4.4
2001-05-28 09:51:00 51°24.957 3°7.714 290 13.7 290.7 4.4
2001-05-28 09:51:05 51°24.964 3°7.686 288.8 13.6 290 4.3
2001-05-28 09:51:10 51°24.971 3°7.657 288.5 13.7 290.7 4.4
2001-05-28 09:51:15 51°24.978 3°7.629 289.2 13.6 291.5 4.3
2001-05-28 09:51:20 51°24.985 3°7.601 290 13.6 292.5 4.3
2001-05-28 09:51:25 51°24.992 3°7.573 291.8 13.5 295.4 4.3
2001-05-28 09:51:30 51°25.001 3°7.546 294 13.5 296.9 4.3
2001-05-28 09:51:35 51°25.009 3°7.519 295.8 13.5 298.4 4.3
2001-05-28 09:51:40 51°25.018 3°7.493 297.5 13.6 299.1 4.2
2001-05-28 09:51:45 51°25.028 3°7.466 298 13.5 299.8 4.2
2001-05-28 09:51:50 51°25.037 3°7.44 298.7 13.5 300 4.2
2001-05-28 09:51:55 51°25.047 3°7.415 299 13.5 300.3 4.1
2001-05-28 09:52:00 51°25.056 3°7.389 299.2 13.5 300.4 4.2
2001-05-28 09:52:05 51°25.065 3°7.363 299 13.5 300.3 4.1
2001-05-28 09:52:10 51°25.076 3°7.338 300 13.3 303.1 4.1
2001-05-28 09:52:15 51°25.086 3°7.313 301.8 13.4 304.2 4
2001-05-28 09:52:20 51°25.097 3°7.289 304.3 13.3 308.3 4
2001-05-28 09:52:25 51°25.109 3°7.266 307.3 13.4 310.4 4.1
2001-05-28 09:52:30 51°25.121 3°7.244 310 13.4 313.2 4.1
2001-05-28 09:52:35 51°25.134 3°7.223 312.8 13.4 314.6 4
2001-05-28 09:52:40 51°25.148 3°7.203 315 13.3 316.6 4.1
2001-05-28 09:52:45 51°25.161 3°7.184 317 13.4 317.7 4.3
2001-05-28 09:52:50 51°25.176 3°7.164 318.5 13.4 319.5 4.2
2001-05-28 09:52:55 51°25.19 3°7.146 319.5 13.3 321 4.3
2001-05-28 09:53:00 51°25.204 3°7.127 320.5 13.3 321.6 4.4
2001-05-28 09:53:05 51°25.219 3°7.108 321.2 13.3 321.5 4.3
2001-05-28 09:53:10 51°25.234 3°7.09 321.3 13.6 321.5 4.4
2001-05-28 09:53:15 51°25.249 3°7.072 321 13.5 320.9 4.6
2001-05-28 09:53:20 51°25.263 3°7.053 320.8 13.6 320.6 4.6
2001-05-28 09:53:25 51°25.277 3°7.034 320 13.6 319.7 4.7
2001-05-28 09:53:30 51°25.291 3°7.015 319.8 13.6 320.7 4.8
2001-05-28 09:53:35 51°25.306 3°6.996 320 13.5 321.6 4.9
2001-05-28 09:53:40 51°25.321 3°6.978 321 13.5 322.2 5.1
2001-05-28 09:53:45 51°25.336 3°6.962 324 13.5 327.7 5
2001-05-28 09:53:50 51°25.352 3°6.947 328.7 13.4 332.2 5
2001-05-28 09:53:55 51°25.37 3°6.933 334.7 13.5 337.2 5
2001-05-28 09:54:00 51°25.387 3°6.923 339.3 13.4 342 5
2001-05-28 09:54:05 51°25.405 3°6.915 343.2 13.4 343.9 5.1
2001-05-28 09:54:10 51°25.423 3°6.908 345.3 13.3 345.4 5.2
2001-05-28 09:54:15 51°25.44 3°6.902 346.8 13.3 347 5.2
2001-05-28 09:54:20 51°25.458 3°6.895 346.8 13.4 345.2 5.2
2001-05-28 09:54:25 51°25.476 3°6.886 344.8 13.5 343.9 5.2
2001-05-28 09:54:30 51°25.494 3°6.877 342 13.5 341.9 5.2
2001-05-28 09:54:35 51°25.512 3°6.867 341.5 13.6 340.3 5.3
2001-05-28 09:54:40 51°25.53 3°6.857 341 13.4 342.6 5.3
2001-05-28 09:54:45 51°25.547 3°6.848 342.7 13.4 342.4 5.3
2001-05-28 09:54:50 51°25.565 3°6.839 342.5 13.4 342.5 5.3
2001-05-28 09:54:55 51°25.584 3°6.83 342.7 13.6 342.5 5.5
2001-05-28 09:55:00 51°25.601 3°6.82 342.5 13.6 341.1 5.5
2001-05-28 09:55:05 51°25.619 3°6.81 341.5 13.4 341.5 5.6
2001-05-28 09:55:10 51°25.638 3°6.8 340.2 13.5 338 5.5
2001-05-28 09:55:15 51°25.656 3°6.789 339 13.4 338.5 5.6
2001-05-28 09:55:20 51°25.673 3°6.778 338.7 13.3 336.6 5.6
2001-05-28 09:55:25 51°25.69 3°6.767 337.7 13.2 335.4 5.2
2001-05-28 09:55:30 51°25.707 3°6.755 337.3 13.4 337.7 5.5
2001-05-28 09:55:35 51°25.724 3°6.744 337.3 13.4 335.8 5.6
2001-05-28 09:55:40 51°25.741 3°6.733 338.2 13.5 339.4 5.6
2001-05-28 09:55:45 51°25.759 3°6.722 338.2 13.3 338.8 5.7
2001-05-28 09:55:50 51°25.776 3°6.712 338.8 13.3 340.6 5.4
2001-05-28 09:55:55 51°25.793 3°6.702 340.7 13.2 342.2 5.6
2001-05-28 09:56:00 51°25.81 3°6.693 342 13.2 341.4 5.6
2001-05-28 09:56:05 51°25.827 3°6.685 343.5 13.1 346.3 5.6
2001-05-28 09:56:10 51°25.845 3°6.678 345.7 13 346.8 5.1
2001-05-28 09:56:15 51°25.864 3°6.67 346.7 13.2 346.1 5.1
2001-05-28 09:56:20 51°25.881 3°6.662 345.3 13.2 342.9 5.1
2001-05-28 09:56:25 51°25.899 3°6.653 343.5 13 342.8 5.4
2001-05-28 09:56:30 51°25.916 3°6.643 341.8 13.2 339.4 5.4
2001-05-28 09:56:35 51°25.934 3°6.631 338.5 13.3 336.8 5.5
2001-05-28 09:56:40 51°25.951 3°6.619 336.8 13.3 335.8 5.4
2001-05-28 09:56:45 51°25.967 3°6.608 337.2 13 336.6 5.2
2001-05-28 09:56:50 51°25.984 3°6.598 339 13.2 340.5 5.3
2001-05-28 09:56:55 51°26.002 3°6.588 340.3 13.2 340.3 5.3
2001-05-28 09:57:00 51°26.02 3°6.58 342.5 13.3 345.3 5.3
2001-05-28 09:57:05 51°26.038 3°6.574 345.3 13.3 348.7 5.4
2001-05-28 09:57:10 51°26.055 3°6.567 348 13.2 349.6 5.5
2001-05-28 09:57:15 51°26.073 3°6.562 348.8 12.9 349.8 5.4
2001-05-28 09:57:20 51°26.09 3°6.557 350 13.2 349.1 5.4
2001-05-28 09:57:25 51°26.108 3°6.55 349.3 13.2 348.1 5.3
2001-05-28 09:57:30 51°26.126 3°6.544 348.5 13 346 5.5
2001-05-28 09:57:35 51°26.143 3°6.537 347.7 13.1 347.3 5.5
2001-05-28 09:57:40 51°26.161 3°6.529 345.3 13.3 342.4 5.3
2001-05-28 09:57:45 51°26.178 3°6.521 344.5 13.3 343.7 5.1
2001-05-28 09:57:50 51°26.197 3°6.512 342.7 13.7 338.7 5.4
2001-05-28 09:57:55 51°26.212 3°6.502 341.7 13.6 340 5.4
2001-05-28 09:58:00 51°26.229 3°6.491 340.2 13.5 336.7 5.7
2001-05-28 09:58:05 51°26.247 3°6.479 339.8 13.5 338.4 5.6
2001-05-28 09:58:10 51°26.265 3°6.467 338.3 13.5 334.9 5.8
2001-05-28 09:58:15 51°26.282 3°6.455 337.3 13.4 336.8 5.9
2001-05-28 09:58:20 51°26.299 3°6.443 336.5 13.1 335 5.9
2001-05-28 09:58:25 51°26.316 3°6.431 336.2 13.2 336 6.2
2001-05-28 09:58:30 51°26.333 3°6.42 338.2 13.2 338.7 6
2001-05-28 09:58:35 51°26.351 3°6.41 339.8 13.3 341.3 6.2
2001-05-28 09:58:40 51°26.368 3°6.401 342.2 13.1 342.9 6.3
2001-05-28 09:58:45 51°26.386 3°6.392 342.7 13.3 343.1 6.1
2001-05-28 09:58:50 51°26.404 3°6.382 342.3 13.4 340 6.2
2001-05-28 09:58:55 51°26.421 3°6.372 341 13.4 338 6.4
2001-05-28 09:59:00 51°26.439 3°6.36 339.8 13.6 337.9 6.5
2001-05-28 09:59:05 51°26.457 3°6.348 338.2 13.7 336 6.3
2001-05-28 09:59:10 51°26.474 3°6.336 337.3 13.2 333.3 6.3
2001-05-28 09:59:15 51°26.491 3°6.324 336.5 13.4 334.3 6.2
2001-05-28 09:59:20 51°26.508 3°6.311 335.2 13.3 334.4 6.4
2001-05-28 09:59:25 51°26.525 3°6.298 335.2 13.3 336.2 6.5
2001-05-28 09:59:30 51°26.542 3°6.286 335.3 13.1 334.1 6.4
2001-05-28 09:59:35 51°26.558 3°6.275 337.2 13.1 337.9 6.6
2001-05-28 09:59:40 51°26.575 3°6.265 340.3 13.3 339.9 6.7
2001-05-28 09:59:45 51°26.593 3°6.257 344 13.4 346 6.6
2001-05-28 09:59:50 51°26.61 3°6.249 344.7 13 343.4 6.8
2001-05-28 09:59:55 51°26.627 3°6.242 345.5 13 348.7 6.5
2001-05-28 10:00:00 51°26.645 3°6.234 346 13.3 343.9 6.7
2001-05-28 10:00:05 51°26.663 3°6.225 343.3 13.5 341.9 6.7
2001-05-28 10:00:10 51°26.681 3°6.215 342.3 13.4 341.6 6.9
2001-05-28 10:00:15 51°26.698 3°6.205 340.2 13.3 337.7 6.7
2001-05-28 10:00:20 51°26.715 3°6.193 338.5 13.2 337.8 6.8
2001-05-28 10:00:25 51°26.732 3°6.181 336.8 13.2 335.1 6.8
2001-05-28 10:00:30 51°26.749 3°6.168 335.8 13.5 334.7 6.7
2001-05-28 10:00:35 51°26.765 3°6.156 335.7 13.5 335.4 6.8
2001-05-28 10:00:40 51°26.782 3°6.143 335.3 13.2 334.7 6.5
2001-05-28 10:00:45 51°26.799 3°6.132 335.8 13.2 338.6 6.6
2001-05-28 10:00:50 51°26.816 3°6.12 336.8 13.3 337.5 6.7
2001-05-28 10:00:55 51°26.833 3°6.109 337.2 13.3 337 6.8
2001-05-28 10:01:00 51°26.85 3°6.098 338.7 13.4 337.8 6.6
2001-05-28 10:01:05 51°26.867 3°6.088 338.8 13.4 339.3 6.8
2001-05-28 10:01:10 51°26.884 3°6.078 339.2 13.1 340.8 6.7
2001-05-28 10:01:15 51°26.902 3°6.067 340.2 13.2 340.2 6.7
2001-05-28 10:01:20 51°26.92 3°6.057 340.3 13.5 340.4 6.8
2001-05-28 10:01:25 51°26.938 3°6.048 340.5 13.5 341.4 7
2001-05-28 10:01:30 51°26.956 3°6.038 340.8 13.4 342.2 7.1
2001-05-28 10:01:35 51°26.974 3°6.029 340.8 13.3 342.5 7.2
2001-05-28 10:01:40 51°26.991 3°6.019 341.7 13.5 342.6 7.3
2001-05-28 10:01:45 51°27.009 3°6.011 342.2 13.5 342.1 7.3
2001-05-28 10:01:50 51°27.027 3°6.003 344.2 13.3 346.6 7.4
2001-05-28 10:01:55 51°27.045 3°5.996 345.2 13.5 346 7.4
2001-05-28 10:02:00 51°27.064 3°5.991 346.8 13.6 348.3 7.5
2001-05-28 10:02:05 51°27.082 3°5.984 347.5 13.4 346.2 7.7
2001-05-28 10:02:10 51°27.1 3°5.978 347.8 13.3 346.2 7.7
2001-05-28 10:02:15 51°27.118 3°5.972 348.5 13.5 348.7 7.9
2001-05-28 10:02:20 51°27.136 3°5.966 347.8 13.5 347.2 8
2001-05-28 10:02:25 51°27.154 3°5.96 348 13.5 347.2 8.2
2001-05-28 10:02:30 51°27.172 3°5.954 348.3 13.5 347.5 8.3
2001-05-28 10:02:35 51°27.19 3°5.948 348 13.4 347.8 8.4
2001-05-28 10:02:40 51°27.208 3°5.942 348.7 13.4 349.2 8.5
2001-05-28 10:02:45 51°27.227 3°5.937 349.7 13.5 352.8 8.5
2001-05-28 10:02:50 51°27.245 3°5.931 348.5 13.2 349.2 8.5
2001-05-28 10:02:55 51°27.263 3°5.924 347.2 13.4 346.5 8.5
2001-05-28 10:03:00 51°27.281 3°5.917 347.5 13.6 345.6 8.5
2001-05-28 10:03:05 51°27.3 3°5.911 347 13.6 346.3 8.5
2001-05-28 10:03:10 51°27.318 3°5.903 346.5 13.4 345.1 8.8
2001-05-28 10:03:15 51°27.336 3°5.897 347.2 13.4 348.5 8.9
2001-05-28 10:03:20 51°27.354 3°5.89 346.8 13.6 348 9.1
2001-05-28 10:03:25 51°27.372 3°5.883 346.7 13.4 346.4 9.2
2001-05-28 10:03:30 51°27.39 3°5.877 348.5 13.5 349.9 9.2
2001-05-28 10:03:35 51°27.409 3°5.872 350.7 13.6 351 9.3
2001-05-28 10:03:40 51°27.427 3°5.867 352 13.3 355 9.3
2001-05-28 10:03:45 51°27.445 3°5.863 352.7 13.5 352.7 9.4
2001-05-28 10:03:50 51°27.464 3°5.86 353.3 13.4 358.2 9.3
2001-05-28 10:03:55 51°27.482 3°5.858 353.5 13.1 357.6 9
2001-05-28 10:04:00 51°27.5 3°5.854 354 13.4 356.2 8.9
2001-05-28 10:04:05 51°27.519 3°5.851 353.2 13.4 353.8 9.1
2001-05-28 10:04:10 51°27.538 3°5.847 353.7 13.4 356.2 9.2
2001-05-28 10:04:15 51°27.556 3°5.845 354 13.2 356.3 9.4
2001-05-28 10:04:20 51°27.576 3°5.843 355.7 13.5 354.2 9.5
2001-05-28 10:04:25 51°27.596 3°5.84 355 13.5 356 9.7
2001-05-28 10:04:30 51°27.614 3°5.835 353.3 13.1 354.1 9.8
2001-05-28 10:04:35 51°27.632 3°5.831 352.7 13.3 353.8 9.9
2001-05-28 10:04:40 51°27.65 3°5.826 351.5 13.5 348.2 9.9
2001-05-28 10:04:45 51°27.668 3°5.822 352 13.3 355.5 10
2001-05-28 10:04:50 51°27.686 3°5.82 355.2 13 355.5 10
2001-05-28 10:04:55 51°27.704 3°5.819 357.8 13 358.8 10
2001-05-28 10:05:00 51°27.722 3°5.819 1.7 12.9 5.1 10
2001-05-28 10:05:05 51°27.74 3°5.823 6.2 13.2 4.9 10
2001-05-28 10:05:10 51°27.759 3°5.828 9.7 13 9.8 10.1
2001-05-28 10:05:15 51°27.777 3°5.833 12.5 13.3 13.9 10.1
2001-05-28 10:05:20 51°27.794 3°5.841 13.7 13 14.2 10.1
2001-05-28 10:05:25 51°27.811 3°5.853 20.2 13.2 25.7 10.2
2001-05-28 10:05:30 51°27.828 3°5.864 23 12.8 27.8 10.3
2001-05-28 10:05:35 51°27.842 3°5.88 27.3 12.6 31.7 10.2
2001-05-28 10:05:40 51°27.857 3°5.896 33.2 12.5 41.5 10.3
2001-05-28 10:05:45 51°27.868 3°5.917 39.5 12.6 44.5 10.3
2001-05-28 10:05:50 51°27.88 3°5.938 44.7 12 54.4 10.4
2001-05-28 10:05:55 51°27.888 3°5.961 53.7 12.1 59.8 10.4
2001-05-28 10:06:00 51°27.897 3°5.985 59 12.8 62.2 10.3
2001-05-28 10:06:05 51°27.904 3°6.01 60.7 12.7 65.1 10.3
2001-05-28 10:06:10 51°27.911 3°6.036 63.5 12.7 69.1 10.3
2001-05-28 10:06:15 51°27.916 3°6.062 67.7 12.7 73.8 10.3
2001-05-28 10:06:20 51°27.92 3°6.09 73 12.8 76.7 10.4
2001-05-28 10:06:25 51°27.924 3°6.117 73.3 12.7 75.6 10.4
2001-05-28 10:06:30 51°27.929 3°6.144 72.2 12.8 74 10.4
2001-05-28 10:06:35 51°27.934 3°6.171 71 12.7 72.9 10.4
2001-05-28 10:06:40 51°27.939 3°6.199 70 13 72.5 10.2
2001-05-28 10:06:45 51°27.944 3°6.226 69.8 13.1 72.8 10.2
2001-05-28 10:06:50 51°27.95 3°6.253 68.8 12.4 70.5 10.3
2001-05-28 10:06:55 51°27.956 3°6.279 67.8 12.4 70.9 10.2
2001-05-28 10:07:00 51°27.962 3°6.305 67.7 12.6 70.7 10.2
2001-05-28 10:07:05 51°27.967 3°6.331 68 12.5 70.5 10.2
2001-05-28 10:07:10 51°27.974 3°6.357 66.8 12.5 68.7 10.1
2001-05-28 10:07:15 51°27.98 3°6.384 66.3 12.7 70.4 10.2
2001-05-28 10:07:20 51°27.986 3°6.409 66.5 12.4 70.5 10.2
2001-05-28 10:07:25 51°27.99 3°6.436 70 12.5 75.2 10.2
2001-05-28 10:07:30 51°27.995 3°6.463 71.5 12.5 73.2 10.2
2001-05-28 10:07:35 51°28 3°6.49 71.2 12.6 75 10.2
2001-05-28 10:07:40 51°28.005 3°6.517 71 12.8 72.9 10.2
2001-05-28 10:07:45 51°28.01 3°6.544 69.8 12.8 73 10.2
2001-05-28 10:07:50 51°28.015 3°6.571 69.7 12.7 71.4 10.2
2001-05-28 10:07:55 51°28.021 3°6.598 68.8 12.8 71.2 10.2
2001-05-28 10:08:00 51°28.027 3°6.625 67.7 12.7 69.5 10.3
2001-05-28 10:08:05 51°28.033 3°6.651 67.3 12.5 71 10.3
2001-05-28 10:08:10 51°28.038 3°6.677 68.5 12.5 71.7 10.3
2001-05-28 10:08:15 51°28.044 3°6.704 69.5 12.7 72 10.3
2001-05-28 10:08:20 51°28.049 3°6.731 68.7 12.8 69.6 10.2
2001-05-28 10:08:25 51°28.056 3°6.757 66.2 12.8 68.3 10.1
2001-05-28 10:08:30 51°28.062 3°6.784 65 12.8 69 10.2
2001-05-28 10:08:35 51°28.068 3°6.811 66.8 12.8 72.1 10.1
2001-05-28 10:08:40 51°28.073 3°6.838 69.7 13 73.2 10.2
2001-05-28 10:08:45 51°28.078 3°6.866 71.2 13 73.6 10.2
2001-05-28 10:08:50 51°28.083 3°6.893 70.2 12.7 70.8 10.2
2001-05-28 10:08:55 51°28.09 3°6.92 68 12.8 69 10.2
2001-05-28 10:09:00 51°28.097 3°6.947 65.2 13 66.8 10.2
2001-05-28 10:09:05 51°28.104 3°6.972 63.3 12.6 66.6 10.2
2001-05-28 10:09:10 51°28.109 3°6.999 66.8 12.5 71.9 10.2
2001-05-28 10:09:15 51°28.114 3°7.026 69.7 13 71.6 10.1
2001-05-28 10:09:20 51°28.12 3°7.054 68 13.4 70.3 10.1
2001-05-28 10:09:25 51°28.127 3°7.081 66.5 13.1 69.4 10.1
2001-05-28 10:09:30 51°28.133 3°7.108 67 13 71.2 10.1
2001-05-28 10:09:35 51°28.139 3°7.135 67.2 13.1 68.6 10.1
2001-05-28 10:09:40 51°28.146 3°7.163 65.5 13.2 68.2 10.1
2001-05-28 10:09:45 51°28.153 3°7.19 64.8 13.2 67.3 10.1
2001-05-28 10:09:50 51°28.16 3°7.217 65 13.3 67.1 10
2001-05-28 10:09:55 51°28.168 3°7.244 64.3 13.2 66.6 10
2001-05-28 10:10:00 51°28.175 3°7.271 64.2 13 66.5 10.1
2001-05-28 10:10:05 51°28.182 3°7.297 63.7 13.1 65.6 10.1
2001-05-28 10:10:10 51°28.191 3°7.323 61.8 12.9 62.8 10.1
2001-05-28 10:10:15 51°28.199 3°7.348 59.8 12.8 62.1 10
2001-05-28 10:10:20 51°28.208 3°7.373 59.3 13 61.8 10
2001-05-28 10:10:25 51°28.216 3°7.399 61 13.3 64.9 9.9
2001-05-28 10:10:30 51°28.224 3°7.426 61.8 13.4 64.9 9.9
2001-05-28 10:10:35 51°28.231 3°7.454 63.8 13.4 67.8 9.8
2001-05-28 10:10:40 51°28.237 3°7.481 65.7 13.2 67.7 9.9
2001-05-28 10:10:45 51°28.244 3°7.508 65.5 13.3 67.3 9.9
2001-05-28 10:10:50 51°28.252 3°7.535 64.2 13 66 9.8
2001-05-28 10:10:55 51°28.259 3°7.561 63.5 13 65.7 9.8
2001-05-28 10:11:00 51°28.266 3°7.588 64.2 13.3 67.1 9.8
2001-05-28 10:11:05 51°28.274 3°7.615 65 13.3 66.3 9.8
2001-05-28 10:11:10 51°28.282 3°7.642 63.5 13.3 64.1 9.8
2001-05-28 10:11:15 51°28.29 3°7.668 61.8 13.1 64.4 9.7
2001-05-28 10:11:20 51°28.298 3°7.695 63 13 65.4 9.7
2001-05-28 10:11:25 51°28.305 3°7.721 62.8 12.8 64.7 9.7
2001-05-28 10:11:30 51°28.313 3°7.747 63.5 13.1 66 9.7
2001-05-28 10:11:35 51°28.32 3°7.773 63.2 13 64.4 9.7
2001-05-28 10:11:40 51°28.328 3°7.798 62 12.9 64.7 9.7
2001-05-28 10:11:45 51°28.336 3°7.824 62.2 12.6 64.6 9.7
2001-05-28 10:11:50 51°28.343 3°7.85 63.5 13 66.2 9.6
2001-05-28 10:11:55 51°28.351 3°7.876 62.2 13 62.6 9.5
2001-05-28 10:12:00 51°28.359 3°7.902 61 12.9 64.1 9.4
2001-05-28 10:12:05 51°28.367 3°7.928 62.5 13 64.8 9.4
2001-05-28 10:12:10 51°28.373 3°7.955 64.5 13.1 68.3 9.4
2001-05-28 10:12:15 51°28.38 3°7.982 66.3 13.2 68.6 9.4
2001-05-28 10:12:20 51°28.387 3°8.01 66.5 13.1 68.2 9.3
2001-05-28 10:12:25 51°28.394 3°8.037 66.2 13.2 68.7 9.3
2001-05-28 10:12:30 51°28.4 3°8.064 66.5 13.1 70 9.2
2001-05-28 10:12:35 51°28.406 3°8.092 68.7 13.1 71.7 9.1
2001-05-28 10:12:40 51°28.411 3°8.119 70.7 12.9 72.7 9.1
2001-05-28 10:12:45 51°28.416 3°8.147 69.7 12.9 71.2 8.9
2001-05-28 10:12:50 51°28.423 3°8.174 68.5 13 70.9 8.8
2001-05-28 10:12:55 51°28.429 3°8.201 68 13.2 70.5 8.5
2001-05-28 10:13:00 51°28.434 3°8.228 68.2 12.9 71.8 8.4
2001-05-28 10:13:05 51°28.44 3°8.256 69.2 12.9 71.4 8.4
2001-05-28 10:13:10 51°28.446 3°8.283 68.7 13 70.8 8.4
2001-05-28 10:13:15 51°28.452 3°8.31 67.5 13 69 8.4
2001-05-28 10:13:20 51°28.458 3°8.337 66.5 12.8 69.1 8.6
2001-05-28 10:13:25 51°28.465 3°8.363 66.8 12.7 69.9 8.7
2001-05-28 10:13:30 51°28.471 3°8.39 67.3 12.8 68.5 8.8
2001-05-28 10:13:35 51°28.478 3°8.417 65.5 13.2 66.9 8.9
2001-05-28 10:13:40 51°28.485 3°8.443 63.8 13 66.2 9
2001-05-28 10:13:45 51°28.492 3°8.469 63.3 12.8 67.2 9.1
2001-05-28 10:13:50 51°28.498 3°8.495 65.5 12.5 70.3 9.3
2001-05-28 10:13:55 51°28.504 3°8.522 68.7 12.8 71.4 9.4
2001-05-28 10:14:00 51°28.509 3°8.549 68.8 13 70.8 9.4
2001-05-28 10:14:05 51°28.515 3°8.576 68 12.9 70.1 9.5
2001-05-28 10:14:10 51°28.522 3°8.603 66 13.1 68.7 9.6
2001-05-28 10:14:15 51°28.528 3°8.63 65.7 12.9 69.5 9.8
2001-05-28 10:14:20 51°28.534 3°8.657 68.5 12.8 73 9.8
2001-05-28 10:14:25 51°28.539 3°8.685 69.7 13.2 71.7 9.8
2001-05-28 10:14:30 51°28.545 3°8.713 68.5 13.3 71.5 9.9
2001-05-28 10:14:35 51°28.551 3°8.741 67.7 13.2 70 9.9
2001-05-28 10:14:40 51°28.558 3°8.769 68.5 13.5 71.4 10.1
2001-05-28 10:14:45 51°28.564 3°8.796 66.5 13.4 68.3 10.2
2001-05-28 10:14:50 51°28.571 3°8.824 66.5 13.5 71.2 10.3
2001-05-28 10:14:55 51°28.577 3°8.853 68 13.3 70.5 10.4
2001-05-28 10:15:00 51°28.583 3°8.88 69 13 72.3 10.5
2001-05-28 10:15:05 51°28.588 3°8.907 69.2 12.8 71 10.5
2001-05-28 10:15:10 51°28.595 3°8.935 68.2 13 69.6 10.5
2001-05-28 10:15:15 51°28.602 3°8.961 65.5 12.9 66.2 10.5
2001-05-28 10:15:20 51°28.61 3°8.987 63.2 13 62.3 10.3
2001-05-28 10:15:25 51°28.619 3°9.012 59.3 13.1 59.6 10.4
2001-05-28 10:15:30 51°28.629 3°9.037 56 13.3 56.5 10.1
2001-05-28 10:15:35 51°28.64 3°9.061 53.8 13.1 54.9 10.2
2001-05-28 10:15:40 51°28.65 3°9.084 53.8 13.3 55.7 10.3
2001-05-28 10:15:45 51°28.661 3°9.109 53.7 13.3 53.8 10.3
2001-05-28 10:15:50 51°28.672 3°9.132 52.2 13 52.9 10.3
2001-05-28 10:15:55 51°28.683 3°9.154 51.2 12.8 51.9 10.1
2001-05-28 10:16:00 51°28.694 3°9.177 51.2 13.2 51.5 10.3
2001-05-28 10:16:05 51°28.706 3°9.199 49 13.2 47.4 10.3
2001-05-28 10:16:10 51°28.719 3°9.22 45.8 13.2 44.3 10.2
2001-05-28 10:16:15 51°28.734 3°9.24 41.7 13.4 40.5 10.2
2001-05-28 10:16:20 51°28.749 3°9.257 36.2 12.9 34.8 10.2
2001-05-28 10:16:25 51°28.764 3°9.273 34.5 12.8 35.1 10.3
2001-05-28 10:16:30 51°28.781 3°9.288 33 13.1 29.5 10.2
2001-05-28 10:16:35 51°28.798 3°9.302 29.7 13.3 28.9 10.5
2001-05-28 10:16:40 51°28.814 3°9.315 27 12.7 24.4 10.5
2001-05-28 10:16:45 51°28.831 3°9.327 25.2 13.1 24.6 10.4
2001-05-28 10:16:50 51°28.848 3°9.337 21.7 13.2 18.5 10.5
2001-05-28 10:16:55 51°28.865 3°9.345 17.7 13 15.6 10.5
2001-05-28 10:17:00 51°28.882 3°9.353 16.5 13.1 10.7 10.5
2001-05-28 10:17:05 51°28.9 3°9.358 13.7 13.3 12.6 10.5
2001-05-28 10:17:10 51°28.918 3°9.361 9.7 13.1 8.9 10.6
2001-05-28 10:17:15 51°28.936 3°9.364 5 12.9 4.2 10.6
2001-05-28 10:17:20 51°28.954 3°9.364 2.7 13 4.8 10.8
2001-05-28 10:17:25 51°28.972 3°9.363 0.7 13.1 357.8 10.6
2001-05-28 10:17:30 51°28.99 3°9.36 356 13 352.7 10.6
2001-05-28 10:17:35 51°29.008 3°9.354 351.3 12.9 347.8 10.7
2001-05-28 10:17:40 51°29.025 3°9.347 347.7 12.9 344.8 10.8
2001-05-28 10:17:45 51°29.042 3°9.338 343.5 12.8 340.5 10.8
2001-05-28 10:17:50 51°29.059 3°9.327 340 13 338 10.7
2001-05-28 10:17:55 51°29.074 3°9.314 336.3 12.6 335.3 10.8
2001-05-28 10:18:00 51°29.09 3°9.301 332.8 13.1 331 10.5
2001-05-28 10:18:05 51°29.105 3°9.285 329.7 13.3 326 10.5
2001-05-28 10:18:10 51°29.119 3°9.269 325.3 12.6 323.4 10.7
2001-05-28 10:18:15 51°29.134 3°9.251 323 12.8 322.6 10.6
2001-05-28 10:18:20 51°29.147 3°9.232 319.3 13 316.1 10.6
2001-05-28 10:18:25 51°29.158 3°9.211 315.5 13 312.6 10.9
2001-05-28 10:18:30 51°29.17 3°9.19 312 12.9 310.5 11
2001-05-28 10:18:35 51°29.181 3°9.167 310.2 13 308.3 11
2001-05-28 10:18:40 51°29.192 3°9.144 308.8 13.1 308.7 10.9
2001-05-28 10:18:45 51°29.202 3°9.12 309.3 13.1 308.9 11.1
2001-05-28 10:18:50 51°29.213 3°9.097 309.5 13.3 308.7 11.1
2001-05-28 10:18:55 51°29.224 3°9.075 309.8 13.1 309.4 11.2
2001-05-28 10:19:00 51°29.236 3°9.052 311 13.3 310.6 11.2
2001-05-28 10:19:05 51°29.248 3°9.03 310.3 13.3 309.8 11.2
2001-05-28 10:19:10 51°29.26 3°9.007 310.2 13.2 309.7 11.1
2001-05-28 10:19:15 51°29.273 3°8.985 310 13.4 310.7 11.1
2001-05-28 10:19:20 51°29.286 3°8.963 311.2 13.3 311.2 11.1
2001-05-28 10:19:25 51°29.297 3°8.941 311.8 13.2 311.4 11.1
2001-05-28 10:19:30 51°29.309 3°8.918 312.3 13.2 311.6 11.1
2001-05-28 10:19:35 51°29.321 3°8.896 311.5 13.4 310.4 11.2
2001-05-28 10:19:40 51°29.333 3°8.873 310.7 13 309.8 11.1
2001-05-28 10:19:45 51°29.344 3°8.85 310.2 13.3 310.1 11.2
2001-05-28 10:19:50 51°29.355 3°8.826 309.2 13.1 306.6 11.2
2001-05-28 10:19:55 51°29.366 3°8.803 307.7 13.1 307.6 11.2
2001-05-28 10:20:00 51°29.377 3°8.779 307 13.4 305.8 11.1
2001-05-28 10:20:05 51°29.388 3°8.755 306.8 13.4 306.3 11.2
2001-05-28 10:20:10 51°29.399 3°8.732 307.2 13.5 306.9 11.1
2001-05-28 10:20:15 51°29.409 3°8.708 307.3 13.3 307.5 11.3
2001-05-28 10:20:20 51°29.42 3°8.684 307.3 13.4 306.3 11.3
2001-05-28 10:20:25 51°29.432 3°8.659 307 13.3 306.4 11.5
2001-05-28 10:20:30 51°29.444 3°8.635 307 13.4 306.3 11.7
2001-05-28 10:20:35 51°29.455 3°8.612 306.5 13.5 306 11.8
2001-05-28 10:20:40 51°29.465 3°8.588 306 13.3 304 11.9
2001-05-28 10:20:45 51°29.476 3°8.563 304.3 13.3 302.9 12
2001-05-28 10:20:50 51°29.486 3°8.538 304.5 13.5 306 12.1
2001-05-28 10:20:55 51°29.497 3°8.515 305.8 13.4 305.3 12.1
2001-05-28 10:21:00 51°29.508 3°8.49 306.5 13.4 304.9 12
2001-05-28 10:21:05 51°29.519 3°8.466 305.8 13.3 305 11.9
2001-05-28 10:21:10 51°29.529 3°8.443 306.8 13.2 307 11.9
2001-05-28 10:21:15 51°29.541 3°8.419 307.8 13.3 307 12.2
2001-05-28 10:21:20 51°29.552 3°8.395 307.7 13.4 306.4 12.4
2001-05-28 10:21:25 51°29.563 3°8.37 306.5 13.6 304.5 12.4
2001-05-28 10:21:30 51°29.573 3°8.345 304.5 13.4 304.2 12.5
2001-05-28 10:21:35 51°29.583 3°8.32 303.8 13.4 302.4 12.4
2001-05-28 10:21:40 51°29.593 3°8.295 302.3 13.4 301.5 12.5
2001-05-28 10:21:45 51°29.603 3°8.268 301.2 13.6 299.3 12.6
2001-05-28 10:21:50 51°29.611 3°8.244 299 13.5 297.7 12.7
2001-05-28 10:21:55 51°29.62 3°8.219 299.2 12.9 302.4 12.5
2001-05-28 10:22:00 51°29.63 3°8.194 301.8 12.9 303.9 12.6
2001-05-28 10:22:05 51°29.64 3°8.17 304.2 13.2 305 12.3
2001-05-28 10:22:10 51°29.65 3°8.145 304 13.3 302.8 12.3
2001-05-28 10:22:15 51°29.659 3°8.121 303.5 13.1 302.8 12.2
2001-05-28 10:22:20 51°29.669 3°8.096 302.8 13.4 303.2 12.3
2001-05-28 10:22:25 51°29.678 3°8.071 302.3 13.5 302 12.5
2001-05-28 10:22:30 51°29.687 3°8.045 301.7 13.4 299.9 12.7
2001-05-28 10:22:35 51°29.696 3°8.019 300.7 13.7 299.6 12.9
2001-05-28 10:22:40 51°29.706 3°7.993 300.5 13.5 300.3 13.3
2001-05-28 10:22:45 51°29.716 3°7.968 300.2 13.3 299.5 13.5
2001-05-28 10:22:50 51°29.725 3°7.943 300.3 13.3 300.2 13.6
2001-05-28 10:22:55 51°29.734 3°7.917 300.2 13.6 298.8 13.5
2001-05-28 10:23:00 51°29.743 3°7.89 298.8 13.3 297.4 13.5
2001-05-28 10:23:05 51°29.752 3°7.865 298.8 13 298.3 13.4
2001-05-28 10:23:10 51°29.76 3°7.838 299.3 13.5 297.6 13.4
2001-05-28 10:23:15 51°29.769 3°7.812 298.8 13.4 299.1 13.4
2001-05-28 10:23:20 51°29.777 3°7.785 298.3 13.4 296.9 13.5
2001-05-28 10:23:25 51°29.786 3°7.759 297.8 13.7 297.6 13.6
2001-05-28 10:23:30 51°29.794 3°7.733 298.3 13.5 299.1 13.6
2001-05-28 10:23:35 51°29.804 3°7.707 299.3 13.8 299.4 13.7
2001-05-28 10:23:40 51°29.813 3°7.682 299.5 13.3 300.2 14
2001-05-28 10:23:45 51°29.823 3°7.656 301.5 13.3 300.4 14
2001-05-28 10:23:50 51°29.832 3°7.63 300.3 12.9 299.5 14
2001-05-28 10:23:55 51°29.841 3°7.605 299.3 13 297.9 14.2
2001-05-28 10:24:00 51°29.85 3°7.579 299 13.2 298.3 14.3
2001-05-28 10:24:05 51°29.858 3°7.553 299.3 13.5 298.2 14.5
2001-05-28 10:24:10 51°29.866 3°7.528 299.2 13.4 298.2 14.7
2001-05-28 10:24:15 51°29.875 3°7.502 299.5 13.3 298.1 14.8
2001-05-28 10:24:20 51°29.884 3°7.475 299.8 13.3 299.3 15.1
2001-05-28 10:24:25 51°29.893 3°7.449 300 13.3 298.8 15.1
2001-05-28 10:24:30 51°29.903 3°7.423 299.8 13.6 298.8 15.2
2001-05-28 10:24:35 51°29.912 3°7.397 299.8 13.5 298.9 15.2
2001-05-28 10:24:40 51°29.92 3°7.371 300.2 13.5 298.9 15.4
2001-05-28 10:24:45 51°29.929 3°7.344 299.7 13.4 299.4 15.5
2001-05-28 10:24:50 51°29.937 3°7.318 299.3 13.6 298.2 15.8
2001-05-28 10:24:55 51°29.946 3°7.291 299 13.4 298.2 15.8
2001-05-28 10:25:00 51°29.954 3°7.265 299.2 13.6 298.7 15.9
2001-05-28 10:25:05 51°29.964 3°7.239 299 13.8 298.5 16.1
2001-05-28 10:25:10 51°29.973 3°7.213 299.7 13.5 299.8 16.4
2001-05-28 10:25:15 51°29.983 3°7.187 301 13.6 300.2 16.4
2001-05-28 10:25:20 51°29.992 3°7.16 300.5 13.2 298.3 16.6
2001-05-28 10:25:25 51°30.001 3°7.134 298.8 13.2 297.4 16.7
2001-05-28 10:25:30 51°30.008 3°7.107 296.8 13.3 296 16.6
2001-05-28 10:25:35 51°30.015 3°7.08 295 13.5 294.6 16.9
2001-05-28 10:25:40 51°30.023 3°7.053 294.5 13.2 295.8 17.2
2001-05-28 10:25:45 51°30.032 3°7.026 296.5 13.2 297.5 17.2
2001-05-28 10:25:50 51°30.041 3°7 297.8 13.4 298 17.4
2001-05-28 10:25:55 51°30.049 3°6.973 298.8 13.6 297.7 17.5
2001-05-28 10:26:00 51°30.058 3°6.947 297.7 13.4 296.2 17.7
2001-05-28 10:26:05 51°30.066 3°6.92 296.5 13.4 294.9 17.6
2001-05-28 10:26:10 51°30.074 3°6.894 295.8 12.8 297.9 18.2
2001-05-28 10:26:15 51°30.083 3°6.868 297.8 13.1 298.9 17.9
2001-05-28 10:26:20 51°30.092 3°6.842 299 12.6 298.5 18
2001-05-28 10:26:25 51°30.102 3°6.817 300.2 13 300.6 18
2001-05-28 10:26:30 51°30.11 3°6.791 299.5 13.4 298.2 18.1
2001-05-28 10:26:35 51°30.119 3°6.765 298.2 13.4 298.5 18.2
2001-05-28 10:26:40 51°30.126 3°6.739 298 12.7 298.6 18.2
2001-05-28 10:26:45 51°30.136 3°6.713 298.8 13.3 299.9 18
2001-05-28 10:26:50 51°30.145 3°6.687 298.3 13.1 296.5 18.3
2001-05-28 10:26:55 51°30.153 3°6.66 297 13.1 294.3 18.4
2001-05-28 10:27:00 51°30.161 3°6.633 294.2 13.5 292.4 18.5
2001-05-28 10:27:05 51°30.168 3°6.605 292.8 13.4 292.6 18.4
2001-05-28 10:27:10 51°30.175 3°6.577 293 13.4 293.2 18.8
2001-05-28 10:27:15 51°30.183 3°6.55 294.8 13.3 295.1 19.1
2001-05-28 10:27:20 51°30.192 3°6.524 297.3 13.1 298.2 19.2
2001-05-28 10:27:25 51°30.201 3°6.5 299.5 12.8 300.4 19.1
2001-05-28 10:27:30 51°30.21 3°6.474 301 13.7 297.5 19.2
2001-05-28 10:27:35 51°30.219 3°6.448 299.3 13.6 298.7 19.1
2001-05-28 10:27:40 51°30.226 3°6.422 298 13.1 294.9 19.2
2001-05-28 10:27:45 51°30.234 3°6.395 297.3 13.3 296.9 19.4
2001-05-28 10:27:50 51°30.242 3°6.368 297 13.5 295.3 19.6
2001-05-28 10:27:55 51°30.25 3°6.342 297 13.6 296.6 19.7
2001-05-28 10:28:00 51°30.258 3°6.315 296.8 13.5 296 19.8
2001-05-28 10:28:05 51°30.265 3°6.288 297 13.5 295.2 19.8
2001-05-28 10:28:10 51°30.274 3°6.261 298 13.7 297.7 19.8
2001-05-28 10:28:16 51°30.284 3°6.228 297 13.8 296.1 19.6
2001-05-28 10:28:21 51°30.292 3°6.201 297.7 13 297.7 -999
2001-05-28 10:28:26 51°30.301 3°6.174 298.8 13.5 297.1 -999
2001-05-28 10:28:31 51°30.31 3°6.147 298.7 13.5 298.3 -999
2001-05-28 10:28:36 51°30.319 3°6.119 297.8 13.8 296.5 -999
2001-05-28 10:28:41 51°30.327 3°6.094 298.5 13.1 297.1 20
2001-05-28 10:28:46 51°30.336 3°6.068 299 13.1 298.1 -999
2001-05-28 10:28:51 51°30.344 3°6.042 299 13.4 299.2 -999
2001-05-28 10:28:56 51°30.352 3°6.016 297.7 13.1 294.3 -999
2001-05-28 10:29:01 51°30.36 3°5.989 296.5 13.4 294.1 19.9
2001-05-28 10:29:06 51°30.368 3°5.961 295.2 13.5 292.9 19.5
2001-05-28 10:29:10 51°30.374 3°5.939 294.7 13.4 294.2 19.7
2001-05-28 10:29:15 51°30.382 3°5.912 295.7 13.3 294.6 20
2001-05-28 10:29:20 51°30.391 3°5.885 297.7 13.5 297.2 20.1
2001-05-28 10:29:25 51°30.399 3°5.859 298.2 13.8 297.6 19.7
2001-05-28 10:29:30 51°30.408 3°5.832 297.7 13.5 295.9 19.8
2001-05-28 10:29:35 51°30.416 3°5.804 297 13.5 294.9 19.7
2001-05-28 10:29:40 51°30.424 3°5.777 297.2 13.4 296.6 19.4
2001-05-28 10:29:45 51°30.433 3°5.751 297.3 13.6 295.5 19.1
2001-05-28 10:29:50 51°30.441 3°5.726 298.7 13.4 298.2 19
2001-05-28 10:29:55 51°30.45 3°5.699 299 13.3 297.1 18.8
2001-05-28 10:30:00 51°30.459 3°5.671 298.5 13.2 298.1 18.8
2001-05-28 10:30:05 51°30.467 3°5.643 297.8 13.5 295.8 18.6
2001-05-28 10:30:10 51°30.475 3°5.616 296.8 13.5 295.5 18.5
2001-05-28 10:30:15 51°30.483 3°5.59 297.3 13.6 297.2 18.4
2001-05-28 10:30:20 51°30.491 3°5.563 297.5 13.8 296.1 18.4
2001-05-28 10:30:25 51°30.5 3°5.535 296.3 13.8 295.7 18.2
2001-05-28 10:30:30 51°30.508 3°5.509 296.3 13.3 293.7 18
2001-05-28 10:30:35 51°30.517 3°5.482 297.2 13.5 295.6 18
2001-05-28 10:30:40 51°30.525 3°5.456 297.7 13.4 295.7 18.2
2001-05-28 10:30:45 51°30.534 3°5.43 299 13.5 298 18
2001-05-28 10:30:50 51°30.542 3°5.402 298.2 13.2 295.5 18.2
2001-05-28 10:30:55 51°30.55 3°5.375 298.2 13.6 295.7 18.2
2001-05-28 10:31:00 51°30.559 3°5.348 298.2 13.5 295.9 18.2
2001-05-28 10:31:05 51°30.567 3°5.321 299.3 13.4 298 18.4
2001-05-28 10:31:10 51°30.576 3°5.295 300.3 13.4 298.4 18.4
2001-05-28 10:31:15 51°30.585 3°5.269 300.2 13.5 297.7 18.5
2001-05-28 10:31:20 51°30.594 3°5.241 298.8 13.6 296.6 18.7
2001-05-28 10:31:25 51°30.601 3°5.215 298 13.7 296 18.7
2001-05-28 10:31:30 51°30.61 3°5.188 297.5 13.7 295.1 18.6
2001-05-28 10:31:35 51°30.618 3°5.161 297.3 13.6 296.1 18.7
2001-05-28 10:31:40 51°30.626 3°5.133 298.2 13.8 295.5 19
2001-05-28 10:31:45 51°30.635 3°5.106 298.3 13.5 296.9 19.1
2001-05-28 10:31:50 51°30.644 3°5.08 300 13.5 297.7 19.4
2001-05-28 10:31:55 51°30.653 3°5.053 299.7 13.5 298.2 19.4
2001-05-28 10:32:00 51°30.662 3°5.027 299.8 13.6 298 19.5
2001-05-28 10:32:05 51°30.671 3°5 299.3 13.7 297.4 19.6
2001-05-28 10:32:10 51°30.68 3°4.972 299.3 13.5 297.8 19.6
2001-05-28 10:32:15 51°30.688 3°4.946 299.5 13.6 296.6 19.7
2001-05-28 10:32:20 51°30.697 3°4.918 298.7 13.7 296.7 19.8
2001-05-28 10:32:25 51°30.705 3°4.892 298.5 13.4 296.5 19.8
2001-05-28 10:32:30 51°30.714 3°4.865 298.5 13.7 296.1 20
2001-05-28 10:32:36 51°30.723 3°4.832 297.5 13.7 296.5 20.2
2001-05-28 10:32:41 51°30.731 3°4.805 297.2 13.6 295.2 17.1
2001-05-28 10:32:46 51°30.74 3°4.778 296.8 13.6 295.2 -999
2001-05-28 10:32:51 51°30.748 3°4.751 297 13.5 294.5 -999
2001-05-28 10:32:56 51°30.756 3°4.724 296.7 13.5 294.9 -999
2001-05-28 10:33:01 51°30.764 3°4.696 296.5 13.5 296.2 -999
2001-05-28 10:33:06 51°30.772 3°4.669 297.7 13.7 295.7 -999
2001-05-28 10:33:11 51°30.78 3°4.643 299.7 13.3 299.7 -999
2001-05-28 10:33:16 51°30.789 3°4.617 300.8 13.2 298.9 -999
2001-05-28 10:33:21 51°30.798 3°4.59 300.7 13.4 297.3 -999
2001-05-28 10:33:26 51°30.807 3°4.563 298.7 13.5 296.3 -999
2001-05-28 10:33:31 51°30.815 3°4.536 298 13.6 296.5 -999
2001-05-28 10:33:36 51°30.824 3°4.509 298.2 13.5 298 -999
2001-05-28 10:33:41 51°30.832 3°4.483 299 13.5 298.3 -999
2001-05-28 10:33:46 51°30.841 3°4.456 299.2 13.5 297.9 -999
2001-05-28 10:33:51 51°30.85 3°4.429 299.7 13.6 297.9 -999
2001-05-28 10:33:56 51°30.859 3°4.402 299.2 13.6 297.4 -999
2001-05-28 10:34:01 51°30.868 3°4.376 298.8 13.6 296.2 -999
2001-05-28 10:34:06 51°30.876 3°4.348 298.5 13.6 296.8 -999
2001-05-28 10:34:11 51°30.884 3°4.321 297.7 13.8 294.9 -999
2001-05-28 10:34:16 51°30.892 3°4.294 296.7 13.6 296.9 -999
2001-05-28 10:34:21 51°30.901 3°4.267 296.2 13.5 296.6 -999
2001-05-28 10:34:26 51°30.909 3°4.239 297.7 13.7 295.6 17.8
2001-05-28 10:34:31 51°30.917 3°4.213 298.3 13.6 297.5 -999
2001-05-28 10:34:36 51°30.926 3°4.185 297.8 13.6 296.3 -999
2001-05-28 10:34:41 51°30.934 3°4.159 298.8 13.3 298.1 -999
2001-05-28 10:34:46 51°30.943 3°4.133 300.3 13.4 299 -999
2001-05-28 10:34:51 51°30.952 3°4.107 302.5 13.4 300.4 -999
2001-05-28 10:34:56 51°30.962 3°4.081 303.3 13.3 303 -999
2001-05-28 10:35:01 51°30.972 3°4.055 302.8 13.7 301.9 -999
2001-05-28 10:35:06 51°30.981 3°4.029 301.2 13.5 299 -999
2001-05-28 10:35:11 51°30.989 3°4.002 298.8 13.6 296.1 -999
2001-05-28 10:35:16 51°30.998 3°3.976 298.8 13.4 296 -999
2001-05-28 10:35:21 51°31.007 3°3.95 300.7 13.5 298.7 -999
2001-05-28 10:35:26 51°31.017 3°3.925 303 13.1 300.7 -999
2001-05-28 10:35:31 51°31.027 3°3.899 302.7 13.5 299.2 -999
2001-05-28 10:35:36 51°31.036 3°3.873 300.7 13.5 296.9 -999
2001-05-28 10:35:41 51°31.044 3°3.845 298.2 13.4 296 -999
2001-05-28 10:35:46 51°31.052 3°3.818 297.8 13.7 297 -999
2001-05-28 10:35:51 51°31.06 3°3.791 299.5 13.5 297.6 -999
2001-05-28 10:35:56 51°31.069 3°3.765 300.8 13.6 297.8 -999
2001-05-28 10:36:01 51°31.078 3°3.738 300.3 13.5 298.1 -999
2001-05-28 10:36:06 51°31.087 3°3.712 300.7 13.4 297.7 -999
2001-05-28 10:36:11 51°31.096 3°3.685 301.3 13.5 300.1 -999
2001-05-28 10:36:16 51°31.105 3°3.66 302.3 13.4 303 -999
2001-05-28 10:36:21 51°31.115 3°3.634 303.8 13.5 302.7 -999
2001-05-28 10:36:26 51°31.126 3°3.609 304.2 13.5 302.3 -999
2001-05-28 10:36:31 51°31.135 3°3.584 303.7 13.6 301.2 -999
2001-05-28 10:36:36 51°31.145 3°3.558 302.5 13.6 299.1 -999
2001-05-28 10:36:41 51°31.154 3°3.531 300.5 13.7 299.2 -999
2001-05-28 10:36:46 51°31.163 3°3.504 299.3 13.5 295.8 -999
2001-05-28 10:36:51 51°31.171 3°3.477 297.7 13.5 294.8 -999
2001-05-28 10:36:56 51°31.179 3°3.45 296.7 13.5 295.6 -999
2001-05-28 10:37:01 51°31.187 3°3.424 297.7 13.5 296 -999
2001-05-28 10:37:06 51°31.196 3°3.397 298.5 13.6 298.3 -999
2001-05-28 10:37:11 51°31.205 3°3.371 299 13.6 297.7 13.3
2001-05-28 10:37:16 51°31.213 3°3.344 299 13.5 297.6 -999
2001-05-28 10:37:21 51°31.222 3°3.317 298.5 13.6 297.4 -999
2001-05-28 10:37:26 51°31.23 3°3.291 299 13.5 298.7 -999
2001-05-28 10:37:31 51°31.24 3°3.265 299.8 13.6 299.8 -999
2001-05-28 10:37:36 51°31.248 3°3.238 299 13.6 295.8 -999
2001-05-28 10:37:41 51°31.257 3°3.211 298 13.6 297.6 -999
2001-05-28 10:37:46 51°31.265 3°3.184 297.3 13.5 295.6 -999
2001-05-28 10:37:51 51°31.273 3°3.157 297.5 13.5 296 -999
2001-05-28 10:37:56 51°31.282 3°3.13 297.3 13.1 297.3 -999
2001-05-28 10:38:01 51°31.29 3°3.105 299 13.2 296.5 -999
2001-05-28 10:38:06 51°31.299 3°3.078 299 13.4 297.4 -999
2001-05-28 10:38:11 51°31.308 3°3.052 299.5 13.6 298 -999
2001-05-28 10:38:16 51°31.317 3°3.025 300.2 13.7 298.4 -999
2001-05-28 10:38:21 51°31.326 3°2.999 299.8 13.6 297.1 -999
2001-05-28 10:38:26 51°31.335 3°2.972 299.5 13.5 296.9 -999
2001-05-28 10:38:31 51°31.343 3°2.945 297.7 13.5 295.9 -999
2001-05-28 10:38:36 51°31.352 3°2.919 297.2 13.5 297.4 -999
2001-05-28 10:38:41 51°31.36 3°2.892 298.2 13.6 296.6 -999
2001-05-28 10:38:46 51°31.369 3°2.865 299.2 13.5 298.1 -999
2001-05-28 10:38:51 51°31.378 3°2.839 299.2 13.4 298.1 -999
2001-05-28 10:38:56 51°31.386 3°2.812 299.2 13.5 298.4 -999
2001-05-28 10:39:01 51°31.395 3°2.785 299 13.4 297.8 -999
2001-05-28 10:39:06 51°31.403 3°2.758 298.2 13.7 296.4 -999
2001-05-28 10:39:11 51°31.411 3°2.73 297.2 13.7 294.5 -999
2001-05-28 10:39:16 51°31.419 3°2.703 296.3 13.7 294.1 -999
2001-05-28 10:39:21 51°31.427 3°2.675 296.3 13.7 294.5 -999
2001-05-28 10:39:26 51°31.435 3°2.647 297.3 13.8 295.5 -999
2001-05-28 10:39:31 51°31.444 3°2.619 297.5 13.9 295.2 -999
2001-05-28 10:39:36 51°31.452 3°2.591 297.8 13.9 294.7 -999
2001-05-28 10:39:41 51°31.46 3°2.564 298.2 13.5 296.3 -999
2001-05-28 10:39:46 51°31.469 3°2.536 298.5 13.5 298.6 -999
2001-05-28 10:39:51 51°31.478 3°2.51 300.2 13.5 298.6 -999
2001-05-28 10:39:56 51°31.487 3°2.484 300.2 13.4 298.5 -999
2001-05-28 10:40:01 51°31.496 3°2.457 299.7 13.7 296.9 -999
2001-05-28 10:40:06 51°31.504 3°2.429 297.8 13.6 294.7 -999
2001-05-28 10:40:11 51°31.512 3°2.402 297.3 13.6 294.8 -999
2001-05-28 10:40:16 51°31.52 3°2.374 297.5 13.8 297.3 -999
2001-05-28 10:40:21 51°31.528 3°2.346 298 13.9 294.9 -999
2001-05-28 10:40:26 51°31.537 3°2.319 298 13.7 297.5 -999
2001-05-28 10:40:31 51°31.545 3°2.291 298.7 13.9 297.4 -999
2001-05-28 10:40:36 51°31.554 3°2.263 298.7 13.9 296.6 -999
2001-05-28 10:40:41 51°31.563 3°2.236 299 14 297.9 -999
2001-05-28 10:40:46 51°31.571 3°2.208 298.5 13.8 296.4 -999
2001-05-28 10:40:51 51°31.579 3°2.18 297.2 14 297 -999
2001-05-28 10:40:56 51°31.588 3°2.153 297.2 13.7 296 -999
2001-05-28 10:41:01 51°31.596 3°2.125 297.2 13.8 296.7 -999
2001-05-28 10:41:06 51°31.604 3°2.098 297.7 13.8 295.7 -999
2001-05-28 10:41:11 51°31.612 3°2.07 296.5 13.9 294.8 -999
2001-05-28 10:41:16 51°31.62 3°2.041 295.8 13.9 293.2 -999
2001-05-28 10:41:21 51°31.628 3°2.013 294.3 14 292.4 -999
2001-05-28 10:41:26 51°31.635 3°1.984 293.2 14 289.6 -999
2001-05-28 10:41:31 51°31.642 3°1.955 292.5 13.9 291.2 -999
2001-05-28 10:41:36 51°31.649 3°1.927 293 13.9 291.4 -999
2001-05-28 10:41:41 51°31.657 3°1.898 294.2 13.9 293.2 -999
2001-05-28 10:41:46 51°31.665 3°1.871 296.7 13.8 295.4 -999
2001-05-28 10:41:51 51°31.674 3°1.844 299 13.5 298 -999
2001-05-28 10:41:56 51°31.683 3°1.817 300.7 13.8 299.2 -999
2001-05-28 10:42:01 51°31.693 3°1.791 301.5 13.6 300 -999
2001-05-28 10:42:06 51°31.702 3°1.764 300.8 13.7 298.4 -999
2001-05-28 10:42:11 51°31.711 3°1.737 300.3 13.8 297.4 -999
2001-05-28 10:42:16 51°31.72 3°1.71 299.7 13.9 298 -999
2001-05-28 10:42:21 51°31.729 3°1.683 298.2 14 297.5 12.5
2001-05-28 10:42:26 51°31.737 3°1.655 296.7 13.7 294.3 -999
2001-05-28 10:42:31 51°31.744 3°1.627 294.7 13.8 293.8 -999
2001-05-28 10:42:36 51°31.751 3°1.598 291.8 13.8 288.4 -999
2001-05-28 10:42:41 51°31.756 3°1.569 288 13.7 286.1 -999
2001-05-28 10:42:46 51°31.761 3°1.539 284.7 13.8 282.4 -999
2001-05-28 10:42:51 51°31.765 3°1.509 280.8 13.5 278.5 21.6
2001-05-28 10:42:55 51°31.767 3°1.484 277.2 13.6 276.6 22.8
2001-05-28 10:43:00 51°31.769 3°1.454 274 13.6 273.1 22.5
2001-05-28 10:43:05 51°31.769 3°1.425 270.5 13.5 270.2 22.6
2001-05-28 10:43:10 51°31.768 3°1.395 267 13.6 264.9 21.6
2001-05-28 10:43:15 51°31.764 3°1.366 261.8 13.4 260.9 21.4
2001-05-28 10:43:20 51°31.76 3°1.337 257.2 13.5 256.6 21.2
2001-05-28 10:43:25 51°31.755 3°1.308 253 13.5 253.4 21.4
2001-05-28 10:43:30 51°31.748 3°1.28 249 13.6 249.9 22.6
2001-05-28 10:43:35 51°31.741 3°1.251 246.3 13.8 248 22.3
2001-05-28 10:43:40 51°31.734 3°1.224 244.5 13.7 247 22.6
2001-05-28 10:43:45 51°31.727 3°1.196 243 13.4 245.2 22.1
2001-05-28 10:43:50 51°31.718 3°1.169 242 13.5 243.9 22.2
2001-05-28 10:43:55 51°31.71 3°1.142 240.8 13.6 243 22
2001-05-28 10:44:00 51°31.701 3°1.115 239.3 13.8 241.5 22.8
2001-05-28 10:44:05 51°31.692 3°1.088 238.3 13.8 241.4 23
2001-05-28 10:44:10 51°31.683 3°1.061 239.7 13.6 243 20.8
2001-05-28 10:44:15 51°31.675 3°1.034 240.5 13.8 243.5 20.8
2001-05-28 10:44:20 51°31.666 3°1.007 240.7 14 242.9 21.1
2001-05-28 10:44:25 51°31.657 3°0.98 239.3 14 241.4 22.3
2001-05-28 10:44:30 51°31.648 3°0.953 237.8 13.9 240.9 21.8
2001-05-28 10:44:35 51°31.639 3°0.927 238.5 13.7 242.7 21.8
2001-05-28 10:44:40 51°31.63 3°0.899 240.8 13.5 244.2 21.9
2001-05-28 10:44:45 51°31.623 3°0.872 242.8 13.5 246.1 22.6
2001-05-28 10:44:50 51°31.615 3°0.844 243.8 13.6 244.6 20.2
2001-05-28 10:44:55 51°31.606 3°0.816 242.2 13.7 244.1 20
2001-05-28 10:45:00 51°31.597 3°0.79 239.5 13.5 240.2 20.3
2001-05-28 10:45:05 51°31.587 3°0.764 236.7 13.9 237 20.5
2001-05-28 10:45:10 51°31.576 3°0.739 233.3 13.8 234 20.7
2001-05-28 10:45:15 51°31.565 3°0.714 230.3 13.8 233.2 21
2001-05-28 10:45:20 51°31.554 3°0.69 230.8 14 234.6 21
2001-05-28 10:45:25 51°31.543 3°0.665 231.2 14 234 21.4
2001-05-28 10:45:30 51°31.531 3°0.64 231 14 234.4 21.2
2001-05-28 10:45:35 51°31.52 3°0.614 230.8 14 235 21.6
2001-05-28 10:45:40 51°31.509 3°0.588 232.7 14 237.2 21.6
2001-05-28 10:45:45 51°31.499 3°0.561 234.5 14.1 237.8 21.2
2001-05-28 10:45:50 51°31.49 3°0.534 236.8 14.1 240.3 21.4
2001-05-28 10:45:55 51°31.48 3°0.507 237.3 14.1 240.4 21.4
2001-05-28 10:46:00 51°31.471 3°0.482 237.3 14 239.7 21.6
2001-05-28 10:46:05 51°31.461 3°0.454 236.2 14.1 238.7 22
2001-05-28 10:46:10 51°31.451 3°0.428 235.5 14 237.3 22.4
2001-05-28 10:46:15 51°31.44 3°0.402 234 14.1 236.4 22.5
2001-05-28 10:46:20 51°31.428 3°0.376 232.7 14.1 235 22.6
2001-05-28 10:46:25 51°31.417 3°0.35 231.5 14.2 234.2 22.7
2001-05-28 10:46:30 51°31.405 3°0.325 230.3 14.2 232.8 22.6
2001-05-28 10:46:35 51°31.393 3°0.299 229.5 14.1 233.1 22.7
2001-05-28 10:46:40 51°31.382 3°0.274 229.5 13.9 233 22.8
2001-05-28 10:46:45 51°31.37 3°0.249 229.7 14.2 232.7 22.9
2001-05-28 10:46:50 51°31.358 3°0.225 230 13.9 233.1 23
2001-05-28 10:46:55 51°31.346 3°0.2 230 14 233 23
2001-05-28 10:47:00 51°31.334 3°0.175 229.5 13.9 231.8 23
2001-05-28 10:47:05 51°31.322 3°0.151 227.7 14.1 231.1 23.2
2001-05-28 10:47:10 51°31.31 3°0.128 226 13.8 228.8 23.2
2001-05-28 10:47:15 51°31.297 3°0.104 225.3 14 229.5 23.1
2001-05-28 10:47:20 51°31.284 3°0.081 225 14 227.9 23.1
2001-05-28 10:47:25 51°31.271 3°0.058 224.7 13.7 227.5 23.1
2001-05-28 10:47:30 51°31.257 3°0.035 224.2 13.8 227.5 23.1
2001-05-28 10:47:35 51°31.244 3°0.013 224.3 13.6 227.3 23.1
2001-05-28 10:47:40 51°31.231 2°59.991 223.8 13.7 227.2 23.2
2001-05-28 10:47:45 51°31.218 2°59.968 224 13.6 227.8 23.2
2001-05-28 10:47:50 51°31.205 2°59.945 224.2 13.5 226.9 21.7
2001-05-28 10:47:55 51°31.192 2°59.924 223.5 13.5 225.7 23.1
2001-05-28 10:48:00 51°31.179 2°59.902 222.2 13.5 225.6 23.2
2001-05-28 10:48:05 51°31.165 2°59.881 222.2 13.6 224.8 23.1
2001-05-28 10:48:10 51°31.152 2°59.859 223 13.5 226.6 23.3
2001-05-28 10:48:15 51°31.139 2°59.837 223.2 13.8 226.2 23.2
2001-05-28 10:48:20 51°31.126 2°59.815 223 13.8 226.1 23.3
2001-05-28 10:48:25 51°31.113 2°59.793 222.5 13.8 225.6 23.4
2001-05-28 10:48:30 51°31.099 2°59.772 222.5 13.8 226.2 23.3
2001-05-28 10:48:35 51°31.086 2°59.749 223.2 13.7 227.4 23.3
2001-05-28 10:48:40 51°31.073 2°59.726 224.3 13.8 227.5 23.1
2001-05-28 10:48:45 51°31.06 2°59.703 224.2 14.1 227.6 23.1
2001-05-28 10:48:50 51°31.047 2°59.681 222.7 14 225 23.1
2001-05-28 10:48:55 51°31.033 2°59.659 221.8 14 226.4 22.8
2001-05-28 10:49:00 51°31.019 2°59.637 222.2 14.1 225.3 23.2
2001-05-28 10:49:05 51°31.006 2°59.614 222.3 14 225.4 23.2
2001-05-28 10:49:10 51°30.992 2°59.593 221.8 14.2 224.7 23.2
2001-05-28 10:49:15 51°30.978 2°59.571 220.2 14 223.3 23.4
2001-05-28 10:49:20 51°30.965 2°59.549 219.2 13.8 223.2 23.4
2001-05-28 10:49:25 51°30.951 2°59.527 219.7 13.9 224 23.4
2001-05-28 10:49:30 51°30.937 2°59.505 220.7 14 224.2 23.3
2001-05-28 10:49:35 51°30.923 2°59.483 221.2 14.1 225 23.3
2001-05-28 10:49:40 51°30.908 2°59.462 222.2 14.1 224.1 23.2
2001-05-28 10:49:45 51°30.894 2°59.441 221.3 14 223.6 23.4
2001-05-28 10:49:50 51°30.88 2°59.419 219.5 14.1 222 23.2
2001-05-28 10:49:55 51°30.866 2°59.397 219.3 14 223.8 23.3
2001-05-28 10:50:00 51°30.853 2°59.375 220.3 14.2 224.1 23.2
2001-05-28 10:50:05 51°30.838 2°59.354 220.8 14 224.4 23.2
2001-05-28 10:50:10 51°30.824 2°59.332 222.2 13.9 225.8 23.3
2001-05-28 10:50:15 51°30.81 2°59.309 223.3 14.1 226.6 23.4
2001-05-28 10:50:20 51°30.796 2°59.287 222.8 13.9 225 23.4
2001-05-28 10:50:25 51°30.782 2°59.265 221 14.2 223.1 23.3
2001-05-28 10:50:30 51°30.768 2°59.243 218.5 14.2 222 23.1
2001-05-28 10:50:35 51°30.754 2°59.223 217.3 14.1 220.7 23
2001-05-28 10:50:40 51°30.739 2°59.202 218.2 14 222.8 23
2001-05-28 10:50:45 51°30.725 2°59.181 219.3 14 223 23
2001-05-28 10:50:50 51°30.711 2°59.159 221.2 13.9 224.8 23
2001-05-28 10:50:55 51°30.697 2°59.137 222 14 224.4 23
2001-05-28 10:51:00 51°30.683 2°59.115 221.2 14 223.8 23.1
2001-05-28 10:51:06 51°30.666 2°59.09 219.3 14 221.5 23
2001-05-28 10:51:10 51°30.654 2°59.073 218.5 13.9 222.8 23
2001-05-28 10:51:15 51°30.64 2°59.052 218.8 13.9 221.7 23
2001-05-28 10:51:20 51°30.626 2°59.031 218.8 13.9 223.2 22.9
2001-05-28 10:51:25 51°30.612 2°59.01 220.2 14.1 223.4 23
2001-05-28 10:51:30 51°30.599 2°58.988 220.7 14.1 224.7 23.1
2001-05-28 10:51:35 51°30.585 2°58.965 221.5 14.3 225.5 23.1
2001-05-28 10:51:40 51°30.571 2°58.943 223 14.2 226.2 23.2
2001-05-28 10:51:45 51°30.556 2°58.921 222.7 14.3 225.6 23.1
2001-05-28 10:51:50 51°30.542 2°58.899 220.8 14.1 223.5 23
2001-05-28 10:51:55 51°30.528 2°58.878 218.8 13.9 221.8 23.1
2001-05-28 10:52:00 51°30.514 2°58.857 219 14 223.6 22.9
2001-05-28 10:52:05 51°30.5 2°58.835 220.5 14.2 223.1 23
2001-05-28 10:52:10 51°30.487 2°58.813 220.7 14 223.4 22.9
2001-05-28 10:52:15 51°30.473 2°58.792 219.8 13.9 222.7 23.1
2001-05-28 10:52:20 51°30.459 2°58.771 219.8 14 222.8 23
2001-05-28 10:52:25 51°30.445 2°58.75 220.8 13.8 224.4 23
2001-05-28 10:52:30 51°30.431 2°58.728 222.2 14.1 226 22.9
2001-05-28 10:52:35 51°30.417 2°58.705 223.3 14 226.8 22.8
2001-05-28 10:52:40 51°30.403 2°58.683 224.5 14 226.7 22.7
2001-05-28 10:52:45 51°30.389 2°58.661 223 14.1 224.9 22.7
2001-05-28 10:52:50 51°30.375 2°58.639 220.7 14.1 223.7 22.7
2001-05-28 10:52:55 51°30.361 2°58.617 220.7 14 223.8 22.5
2001-05-28 10:53:00 51°30.348 2°58.595 220 14.1 223.9 22.5
2001-05-28 10:53:05 51°30.334 2°58.573 220.3 14.1 223.7 22.6
2001-05-28 10:53:10 51°30.32 2°58.551 221.2 14.3 224.5 22.8
2001-05-28 10:53:15 51°30.306 2°58.529 221 14.3 223.4 22.9
2001-05-28 10:53:20 51°30.292 2°58.507 220 14.2 222.7 22.8
2001-05-28 10:53:25 51°30.278 2°58.486 219.7 14.3 223.1 22.9
2001-05-28 10:53:30 51°30.264 2°58.463 221.2 14 225.5 22.9
2001-05-28 10:53:35 51°30.251 2°58.441 222.3 14.2 225 22.8
2001-05-28 10:53:40 51°30.237 2°58.419 222.2 14.2 225 22.8
2001-05-28 10:53:45 51°30.222 2°58.397 220.8 14.2 222.6 22.6
2001-05-28 10:53:50 51°30.208 2°58.376 218.3 14.2 220.9 22.8
2001-05-28 10:53:55 51°30.192 2°58.356 217.2 14 220.2 22.7
2001-05-28 10:54:00 51°30.178 2°58.336 216.2 14.1 219.7 22.7
2001-05-28 10:54:05 51°30.163 2°58.316 216.5 14.1 220.1 22.7
2001-05-28 10:54:10 51°30.148 2°58.295 218.2 14.2 221.3 22.6
2001-05-28 10:54:15 51°30.133 2°58.275 217.7 14.2 220.1 22.3
2001-05-28 10:54:20 51°30.118 2°58.254 217.8 14.3 221.5 22.1
2001-05-28 10:54:25 51°30.103 2°58.233 217.8 14.3 221.5 21.7
2001-05-28 10:54:30 51°30.088 2°58.211 219 14.2 221.9 21.4
2001-05-28 10:54:35 51°30.073 2°58.191 218.2 14.2 219.4 21.3
2001-05-28 10:54:40 51°30.058 2°58.171 216.5 14.3 218.8 21.8
2001-05-28 10:54:45 51°30.043 2°58.151 214.8 14.2 217.3 21.9
2001-05-28 10:54:50 51°30.027 2°58.131 214.2 14.2 219 21.9
2001-05-28 10:54:55 51°30.012 2°58.111 215.2 14.1 218.6 21.6
2001-05-28 10:55:00 51°29.997 2°58.091 216 14.1 219.8 21.7
2001-05-28 10:55:05 51°29.982 2°58.072 215.8 14.2 219.1 21.5
2001-05-28 10:55:10 51°29.966 2°58.052 216.2 14.1 220.7 21.3
2001-05-28 10:55:15 51°29.951 2°58.031 217.2 14.2 220 20.9
2001-05-28 10:55:20 51°29.936 2°58.01 218 14.2 222.9 21.4
2001-05-28 10:55:25 51°29.922 2°57.989 218.7 14.2 221.6 21.3
2001-05-28 10:55:30 51°29.907 2°57.967 219.5 14.3 224.3 21.3
2001-05-28 10:55:35 51°29.893 2°57.946 220.2 14.4 222.3 21.4
2001-05-28 10:55:40 51°29.878 2°57.924 220.7 14 222.8 21.4
2001-05-28 10:55:45 51°29.863 2°57.903 218.5 14.1 219.8 21.1
2001-05-28 10:55:50 51°29.848 2°57.884 216.2 14.2 219.6 20
2001-05-28 10:55:55 51°29.833 2°57.863 216 14.2 220.2 20.3
2001-05-28 10:56:00 51°29.819 2°57.843 216.5 14.3 220.3 21
2001-05-28 10:56:05 51°29.804 2°57.822 217.2 14.3 221 20.5
2001-05-28 10:56:10 51°29.789 2°57.801 218.5 14.2 222.3 20.6
2001-05-28 10:56:15 51°29.775 2°57.78 219.2 14.3 223 18.6
2001-05-28 10:56:20 51°29.76 2°57.758 220.2 14.2 223.6 18.5
2001-05-28 10:56:25 51°29.746 2°57.736 220.3 14.4 223.4 19.6
2001-05-28 10:56:30 51°29.731 2°57.714 220.3 14.4 223.9 20.1
2001-05-28 10:56:35 51°29.717 2°57.692 221 14.4 224.7 20.3
2001-05-28 10:56:40 51°29.703 2°57.67 221.5 14.2 223.5 20.6
2001-05-28 10:56:45 51°29.689 2°57.649 220.2 14.1 222.5 20.5
2001-05-28 10:56:50 51°29.674 2°57.628 218.5 14.2 221.6 20.4
2001-05-28 10:56:55 51°29.659 2°57.607 217.3 14.3 221 19.3
2001-05-28 10:57:00 51°29.644 2°57.587 217.7 14.2 221.1 20.2
2001-05-28 10:57:05 51°29.629 2°57.566 217.3 14.2 219.9 20.5
2001-05-28 10:57:10 51°29.613 2°57.547 215.7 14.3 218.5 20.3
2001-05-28 10:57:15 51°29.598 2°57.527 214.5 14.3 218.1 20.5
2001-05-28 10:57:20 51°29.582 2°57.508 213.7 14.1 216.9 20.7
2001-05-28 10:57:25 51°29.566 2°57.489 213.3 14 217 20.3
2001-05-28 10:57:30 51°29.551 2°57.47 213.8 13.7 217.9 19.8
2001-05-28 10:57:35 51°29.536 2°57.451 215.8 13.5 219.3 18.8
2001-05-28 10:57:40 51°29.521 2°57.431 216.7 13.9 218.8 20.4
2001-05-28 10:57:45 51°29.506 2°57.412 216.3 14 219.6 19.9
2001-05-28 10:57:50 51°29.492 2°57.392 216.8 13.9 220.8 20.3
2001-05-28 10:57:55 51°29.478 2°57.371 217.8 14.1 221.8 20.2
2001-05-28 10:58:00 51°29.463 2°57.35 218.3 14.4 221.7 19.5
2001-05-28 10:58:05 51°29.448 2°57.329 218.5 14.2 222.2 20
2001-05-28 10:58:10 51°29.433 2°57.308 219.7 14.2 222.4 19.6
2001-05-28 10:58:15 51°29.418 2°57.287 219.3 14.2 222.1 19
2001-05-28 10:58:20 51°29.403 2°57.267 218.2 14.3 219.5 18.8
2001-05-28 10:58:25 51°29.388 2°57.247 216.3 14.3 219.3 19.6
2001-05-28 10:58:30 51°29.373 2°57.227 215.8 14.2 219.4 19.1
2001-05-28 10:58:35 51°29.357 2°57.207 215.5 14.2 219.1 18.2
2001-05-28 10:58:40 51°29.342 2°57.188 216.2 14.3 220.6 18.4
2001-05-28 10:58:45 51°29.328 2°57.167 217.7 14.2 220.9 18.7
2001-05-28 10:58:50 51°29.313 2°57.145 218.5 14.3 221.2 18.7
2001-05-28 10:58:55 51°29.298 2°57.125 218.5 14.2 222.5 19.6
2001-05-28 10:59:00 51°29.283 2°57.103 218.2 14.5 220.6 20
2001-05-28 10:59:05 51°29.268 2°57.083 217.3 14.3 220.7 20.3
2001-05-28 10:59:10 51°29.253 2°57.062 217.5 14.2 220.6 20.1
2001-05-28 10:59:15 51°29.238 2°57.042 217.2 14.2 219.9 18.2
2001-05-28 10:59:20 51°29.223 2°57.021 217 14.5 222.1 18.9
2001-05-28 10:59:25 51°29.208 2°57 218 14.3 221.3 19.9
2001-05-28 10:59:30 51°29.193 2°56.978 218.5 14.1 222.2 18.2
2001-05-28 10:59:35 51°29.178 2°56.957 219.7 14.4 223 19.8
2001-05-28 10:59:40 51°29.164 2°56.935 220 14.2 223.6 19.4
2001-05-28 10:59:45 51°29.149 2°56.913 219.8 14.5 222.8 18.1
2001-05-28 10:59:50 51°29.134 2°56.892 218.8 14.3 221.5 19.6
2001-05-28 10:59:55 51°29.119 2°56.871 217 14.2 220 20
2001-05-28 11:00:00 51°29.104 2°56.852 215.3 14.2 217.6 19.5
2001-05-28 11:00:05 51°29.088 2°56.834 214 13.7 215.4 18.6
2001-05-28 11:00:10 51°29.073 2°56.816 212.8 14.2 218 16.8
2001-05-28 11:00:15 51°29.057 2°56.797 213.7 13.9 217.1 19.7
2001-05-28 11:00:20 51°29.042 2°56.778 215.3 13.9 219.4 19.9
2001-05-28 11:00:25 51°29.027 2°56.759 216.3 13.5 218.6 18.8
2001-05-28 11:00:30 51°29.012 2°56.74 216.5 13.9 219.7 18.9
2001-05-28 11:00:35 51°28.997 2°56.721 215.5 13.7 217 19
2001-05-28 11:00:40 51°28.982 2°56.703 214.2 13.9 217.6 19.6
2001-05-28 11:00:45 51°28.967 2°56.683 213.8 14 218.7 18.8
2001-05-28 11:00:50 51°28.952 2°56.663 216.3 14.1 222.4 20.3
2001-05-28 11:00:55 51°28.938 2°56.641 219.3 14.1 222.8 20
2001-05-28 11:01:00 51°28.923 2°56.619 219.7 14.3 222.7 19.5
2001-05-28 11:01:05 51°28.908 2°56.598 218.8 14.2 221.5 18.5
2001-05-28 11:01:10 51°28.892 2°56.576 218.5 14.5 222.1 19.5
2001-05-28 11:01:15 51°28.877 2°56.555 218.5 14.3 221.6 20.2
2001-05-28 11:01:20 51°28.862 2°56.535 218.2 14.4 220.6 19.1
2001-05-28 11:01:25 51°28.847 2°56.514 217.8 14.2 220.7 19.6
2001-05-28 11:01:30 51°28.833 2°56.493 218 14.3 222.2 20.3
2001-05-28 11:01:35 51°28.818 2°56.472 219.3 14.2 222.8 20
2001-05-28 11:01:40 51°28.804 2°56.45 220.2 14.4 222.5 20.1
2001-05-28 11:01:45 51°28.789 2°56.43 219.7 14.2 222.3 20.1
2001-05-28 11:01:50 51°28.775 2°56.408 219.5 14.4 223 19
2001-05-28 11:01:55 51°28.76 2°56.387 218.3 14.4 221.3 19.1
2001-05-28 11:02:00 51°28.745 2°56.366 217.3 14.3 220.3 19.8
2001-05-28 11:02:05 51°28.73 2°56.345 216.5 14.3 219.8 20.2
2001-05-28 11:02:10 51°28.715 2°56.324 216.7 14.3 221.1 21
2001-05-28 11:02:15 51°28.699 2°56.303 218 14.4 221.2 20.5
2001-05-28 11:02:20 51°28.684 2°56.281 218.3 14.5 222.2 20.1
2001-05-28 11:02:25 51°28.67 2°56.26 218.8 14.4 222.3 19.3
2001-05-28 11:02:30 51°28.655 2°56.239 218.5 14.5 222 20.5
2001-05-28 11:02:35 51°28.64 2°56.217 218 14.5 221.5 20.9
2001-05-28 11:02:41 51°28.621 2°56.191 217.3 14.5 220.2 19.7
2001-05-28 11:02:45 51°28.609 2°56.175 216.5 14.5 219.8 21.1
2001-05-28 11:02:50 51°28.594 2°56.154 215.8 14.4 219.8 20.6
2001-05-28 11:02:55 51°28.579 2°56.134 215.5 14.4 219.4 20.2
2001-05-28 11:03:00 51°28.563 2°56.113 215.3 14.5 219.7 21
2001-05-28 11:03:05 51°28.548 2°56.092 216.2 14.4 220.6 20.7
2001-05-28 11:03:10 51°28.533 2°56.071 217.3 14.6 221.8 19.9
2001-05-28 11:03:15 51°28.518 2°56.049 218.8 14.3 222.7 20.8
2001-05-28 11:03:20 51°28.503 2°56.028 219 14.3 221.7 21.4
2001-05-28 11:03:25 51°28.488 2°56.007 218.7 14.4 221.4 20.5
2001-05-28 11:03:30 51°28.473 2°55.986 217.5 14 218.1 21.4
2001-05-28 11:03:35 51°28.457 2°55.967 215.2 14.2 216.8 21.4
2001-05-28 11:03:40 51°28.441 2°55.948 213.5 13.9 216.6 21.1
2001-05-28 11:03:45 51°28.426 2°55.929 213 14 217.7 21.4
2001-05-28 11:03:50 51°28.411 2°55.91 214.7 14.1 219.6 21.6
2001-05-28 11:03:55 51°28.397 2°55.889 217 14.1 221.1 21.5
2001-05-28 11:04:00 51°28.382 2°55.869 218 14.2 220.7 21.6
2001-05-28 11:04:05 51°28.367 2°55.848 217.7 14.4 221.2 22
2001-05-28 11:04:10 51°28.352 2°55.828 217.3 14.2 220 21.5
2001-05-28 11:04:15 51°28.337 2°55.807 216 14.5 219.8 22.3
2001-05-28 11:04:20 51°28.321 2°55.785 216.3 14.3 220.6 22.2
2001-05-28 11:04:25 51°28.306 2°55.763 217.2 14.4 221.5 22.1
2001-05-28 11:04:30 51°28.291 2°55.742 217.5 14.6 221.4 22.2
2001-05-28 11:04:35 51°28.276 2°55.722 217.8 14.5 221.4 20.9
2001-05-28 11:04:40 51°28.261 2°55.701 217.7 14.4 221 22.7
2001-05-28 11:04:45 51°28.246 2°55.681 218 14.2 221 23
2001-05-28 11:04:50 51°28.231 2°55.66 217.5 14.4 221.7 22.4
2001-05-28 11:04:55 51°28.216 2°55.638 217.7 14.5 222.2 22.5
2001-05-28 11:05:00 51°28.201 2°55.617 217.2 14.3 219.6 22.1
2001-05-28 11:05:05 51°28.186 2°55.597 216 14.3 219 22.1
2001-05-28 11:05:10 51°28.17 2°55.577 215.5 14.1 218.1 21.4
2001-05-28 11:05:15 51°28.155 2°55.558 214.8 14.1 218 22.5
2001-05-28 11:05:20 51°28.139 2°55.538 213.8 14.4 218.4 22.2
2001-05-28 11:05:25 51°28.124 2°55.519 213.7 14.6 218.2 22.4
2001-05-28 11:05:30 51°28.108 2°55.499 214.2 14.3 219 22.7
2001-05-28 11:05:36 51°28.09 2°55.475 215.3 14.3 219.6 22.5
2001-05-28 11:05:40 51°28.078 2°55.458 216.7 14.3 221.5 22.9
2001-05-28 11:05:45 51°28.063 2°55.437 218.5 14.3 222.8 23
2001-05-28 11:05:50 51°28.049 2°55.414 220.5 14.4 224.6 23.3
2001-05-28 11:05:55 51°28.035 2°55.39 222.5 14.4 226.7 23.2
2001-05-28 11:06:00 51°28.021 2°55.367 224.7 14.4 228.9 23
2001-05-28 11:06:05 51°28.009 2°55.342 227 14.4 230.5 21.6
2001-05-28 11:06:10 51°27.996 2°55.317 229 14.5 232.9 23.2
2001-05-28 11:06:15 51°27.985 2°55.291 231 14.3 234.6 23.1
2001-05-28 11:06:20 51°27.974 2°55.265 233.3 14.4 236.4 23.5
2001-05-28 11:06:25 51°27.963 2°55.237 235.3 14.5 237.2 23
2001-05-28 11:06:30 51°27.953 2°55.209 236.5 14.3 238 23.2
2001-05-28 11:06:35 51°27.942 2°55.182 236.8 14.5 237.6 23.6
2001-05-28 11:06:40 51°27.931 2°55.155 236.3 14.6 238.2 23.5
2001-05-28 11:06:45 51°27.921 2°55.128 236.7 14.6 239 23.6
2001-05-28 11:06:50 51°27.91 2°55.101 237 14.4 238.2 23.3
2001-05-28 11:06:55 51°27.9 2°55.073 237.7 14.6 239.3 21.8
2001-05-28 11:07:00 51°27.889 2°55.045 236.8 14.6 237.7 23.3
2001-05-28 11:07:05 51°27.878 2°55.018 235.7 14.5 237.5 23.4
2001-05-28 11:07:10 51°27.868 2°54.99 234.7 14.8 236 23.2
2001-05-28 11:07:16 51°27.854 2°54.959 233.2 14.7 235.2 22.7
2001-05-28 11:07:20 51°27.844 2°54.938 231.5 14.6 232.4 22.9
2001-05-28 11:07:25 51°27.832 2°54.913 229.8 14.4 231.8 23.5
2001-05-28 11:07:30 51°27.819 2°54.889 228.2 14.5 230.4 23.5
2001-05-28 11:07:35 51°27.805 2°54.864 226.7 14.5 229.7 23.1
2001-05-28 11:07:40 51°27.792 2°54.84 226.3 14.6 229.3 23
2001-05-28 11:07:45 51°27.779 2°54.815 226 14.5 229 23
2001-05-28 11:07:50 51°27.766 2°54.791 226.7 14.6 230 22.3
2001-05-28 11:07:56 51°27.75 2°54.762 227.2 14.4 230 22
2001-05-28 11:08:00 51°27.74 2°54.742 227.7 14.4 231.5 22.5
2001-05-28 11:08:05 51°27.728 2°54.716 228.7 14.3 232.2 22.8
2001-05-28 11:08:10 51°27.716 2°54.691 229.3 14.4 232.8 22.5
2001-05-28 11:08:15 51°27.704 2°54.665 230.7 14.5 234.4 22.2
2001-05-28 11:08:20 51°27.692 2°54.639 231.7 14.6 235 23.3